Regional Weather Roundup
Issued by NWS

Home | Current Version | Previous Version | Graphics & Text | Print | Product List | Glossary On
Versions: 1 2 3 4 5 6 7 8 9 10 11 12 13 14 15 16 17 18 19 20 21 22 23 24 25 26 27 28 29
000
ASUS45 KBOU 251707
RWRCO

WEATHER ROUNDUP FOR COLORADO
NATIONAL WEATHER SERVICE DENVER/BOULDER CO
1100 AM MDT TUE APR 25 2017

NOTE: "FAIR" INDICATES FEW OR NO CLOUDS BELOW 12000 FEET WITH NO
SIGNIFICANT WEATHER AND/OR OBSTRUCTIONS TO VISIBILITY.

COZ001>005-013-030-031-251800-
...NORTHWEST COLORADO...

CITY           SKY/WX    TMP DP  RH WIND       PRES   REMARKS
CRAIG          CLOUDY    44  32  62 W5        29.70F
HAYDEN         FAIR      39  25  56 W8        29.70
MEEKER         PTSUNNY   45  30  55 VRB3      29.69F
MOUNT WERNER   NOT AVBL
STEAMBOAT SPGS CLOUDY    38  29  71 NW5       29.70F
WALDEN           N/A     36  27  69 SW10      29.69R
$$

COZ006>008-011-251800-
...WEST CENTRAL VALLEYS...

CITY           SKY/WX    TMP DP  RH WIND       PRES   REMARKS
GRAND JUNCTION FAIR      53  31  42 VRB3      29.66F
MONTROSE       TSTM      43  32  65 SW9       29.70R
EAGLE          PTSUNNY   43  27  52 W5        29.71S
RIFLE          PTSUNNY   49  35  58 VRB3      29.67F
DELTA          CLOUDY    49  33  54 SW20G26   29.68R
NUCLA          DRIZZLE   45  30  57 N7G16     29.72R
$$

COZ017>023-064>068-251800-
...SOUTHWEST COLORADO...

CITY           SKY/WX    TMP DP  RH WIND       PRES   REMARKS
DURANGO        FAIR      45  32  60 SW10G20   29.69R
CORTEZ         CLOUDY    47  35  63 SW7       29.72S
PAGOSA SPRINGS DRIZZLE   40  37  92 SW8       29.71S
TELLURIDE      CLOUDY    38  27  64 CALM      29.74S
WOLF CREEK PAS SNOW      25  25 100 S16G22    29.79S VSB 1/4 WCI  12
$$

COZ009-010-012-014-032>034-037-058>063-251800-
...CENTRAL COLORADO...

CITY           SKY/WX    TMP DP  RH WIND       PRES   REMARKS
ASPEN          PTSUNNY   36  30  79 CALM      29.69S
BUENA VISTA    FAIR      46  16  29 W16G24    29.64S
COPPER MTN     CLOUDY    25  18  74 NW9G17    29.72S WCI  15
BERTHOUD PASS  CLOUDY    16   5  62 N12G20    29.71R WCI   3
COTTONWOOD PAS FAIR      41  19  42 W7        29.68S
GUNNISON       FAIR      40  28  62 S6        29.67F
KREMMLING      CLOUDY    45  30  57 E3        29.71S
LEADVILLE      PTSUNNY   31  21  66 NW14      29.69S WCI  21
MONARCH PASS   CLOUDY    23  21  93 W20G30    29.82S WCI   8
SALIDA         CLOUDY    49  21  33 SW15G23   29.70F
SUNLIGHT       PTSUNNY   27  23  86 W7        29.77R WCI  19
WILKERSON PASS FAIR      32  18  55 W7        29.72R WCI  26
$$

COZ069>075-251800-
...SAN LUIS VALLEY/SANGRE DE CRISTO MOUNTAINS...

CITY           SKY/WX    TMP DP  RH WIND       PRES   REMARKS
ALAMOSA        CLOUDY    48  32  53 N20G30    29.66S
LA VETA PASS   PTSUNNY   37  25  60 S15G31    29.80S
SAGUACHE       FAIR      43  27  52 NW16      29.67S
$$

COZ035-036-038>040-251800-
...NORTHERN COLORADO FRONT RANGE...

CITY           SKY/WX    TMP DP  RH WIND       PRES   REMARKS
DENVER INTL AP PTSUNNY   56  23  27 N12       29.58R
DMNS CITY PARK   N/A     55  20  25 N10G21    29.58R
AURORA         PTSUNNY   55  19  24 N10G20    29.58S
FRONT RANGE AP NOT AVBL
ERIE MUNI ARPT FAIR      55  33  44 NE9       29.58R
BOULDER MUN AP FAIR      54  34  47 NE8       29.58R
CENTENNIAL     PTSUNNY   52  21  29 NW5       29.59R
BROOMFIELD     PTSUNNY   55  30  38 N12       29.59R
FORT COLLINS   FAIR      53  38  56 E15       29.59R
LONGMONT       FAIR      54  41  61 E14       29.60S
$$

COZ041-046-047-076>085-087-088-251800-
...PIKES PEAK/PALMER DIVIDE AND SOUTHERN FOOTHILLS...

CITY           SKY/WX    TMP DP  RH WIND       PRES   REMARKS
COLO. SPRINGS  FAIR      54  34  46 S10       29.61R
A. F. ACADEMY  FAIR      53  30  41 S14       29.59R
SCHRIEVER AFB  FAIR      51  31  45 SE7       29.60R
ELLICOTT       NOT AVBL
FALCON         FAIR      52  29  41 S10G18    29.62R
FORT CARSON    FAIR      53  35  51 SE8G18    29.59R
LIMON          FAIR      55  35  47 NE8       29.59S
MONUMENT HILL  FAIR      50  23  34 NE5       29.62R
TRINIDAD       FAIR      49  38  65 E6        29.62R
$$

COZ042>045-048>051-090-091-251800-
...NORTHEAST COLORADO...

CITY           SKY/WX    TMP DP  RH WIND       PRES   REMARKS
GREELEY ARPT   FAIR      53  41  63 E9        29.60S
AKRON          FAIR      53  39  59 NE9       29.59S
BURLINGTON     NOT AVBL
WRAY           NOT AVBL
STERLING       FAIR      55  43  62 NE6       29.58R
HOLYOKE        FAIR      54  43  66 CALM      29.60S
FORT MORGAN    FAIR      56  38  51 NW8       29.60R
$$

COZ086-089-092>099-251800-
...SOUTHEAST COLORADO...

CITY           SKY/WX    TMP DP  RH WIND       PRES   REMARKS
PUEBLO         PTSUNNY   54  39  57 SE12      29.58S
LA JUNTA       CLOUDY    52  41  66 SE12      29.60R
LAMAR          PTSUNNY   55  40  56 NE9       29.56S
SPRINGFIELD      N/A     50  42  74 N17       29.58R
$$




USA.gov is the U.S. government's official web portal to all federal, state and local government web resources and services.